TimeCST,TemperatureF,Dew PointF,Humidity,Sea Level PressureIn,VisibilityMPH,Wind Direction,Wind SpeedMPH,Gust SpeedMPH,PrecipitationIn,Events,Conditions,WindDirDegrees,DateUTC
12:56 AM,60.1,54.0,80,29.95,10.0,East,6.9,-,N/A,,Clear,90,2012-12-07 06:56:00
1:56 AM,59.0,54.0,83,29.94,10.0,East,5.8,-,N/A,,Clear,80,2012-12-07 07:56:00
2:56 AM,60.1,55.0,83,29.94,10.0,ENE,6.9,-,0.00,,Mostly Cloudy,70,2012-12-07 08:56:00
3:18 AM,60.8,53.6,77,29.97,9.0,ENE,6.9,-,N/A,,Scattered Clouds,70,2012-12-07 09:18:00
3:56 AM,59.0,54.0,83,29.94,8.0,NE,4.6,-,N/A,,Clear,40,2012-12-07 09:56:00
4:56 AM,59.0,54.0,83,29.94,7.0,East,5.8,-,0.00,Rain,Light Rain,80,2012-12-07 10:56:00
5:03 AM,57.2,53.6,88,29.98,6.0,East,5.8,-,0.00,Rain,Light Rain,80,2012-12-07 11:03:00
5:23 AM,57.2,53.6,88,29.99,5.0,East,4.6,-,0.00,,Mostly Cloudy,80,2012-12-07 11:23:00
5:56 AM,59.0,55.0,87,29.96,4.0,ESE,3.5,-,N/A,,Overcast,120,2012-12-07 11:56:00
6:56 AM,60.1,55.0,83,29.98,4.0,ENE,5.8,-,N/A,,Overcast,70,2012-12-07 12:56:00
7:31 AM,60.8,57.2,88,30.02,5.0,ENE,6.9,-,N/A,,Overcast,60,2012-12-07 13:31:00
7:56 AM,60.1,57.9,93,29.99,4.0,ENE,8.1,-,N/A,,Overcast,70,2012-12-07 13:56:00
8:34 AM,60.8,57.2,88,30.03,4.0,East,5.8,-,N/A,,Overcast,100,2012-12-07 14:34:00
8:56 AM,62.1,57.0,84,30.00,5.0,East,8.1,-,N/A,,Overcast,90,2012-12-07 14:56:00
9:22 AM,62.6,57.2,82,30.04,5.0,East,8.1,-,N/A,,Overcast,80,2012-12-07 15:22:00
9:49 AM,64.4,57.2,77,30.03,7.0,East,9.2,-,N/A,,Overcast,90,2012-12-07 15:49:00
9:56 AM,64.0,57.9,80,29.99,8.0,East,8.1,-,N/A,,Overcast,100,2012-12-07 15:56:00
10:56 AM,66.9,57.9,73,29.97,10.0,East,6.9,-,N/A,,Mostly Cloudy,80,2012-12-07 16:56:00
11:56 AM,69.1,57.9,68,29.94,10.0,ESE,5.8,-,N/A,,Mostly Cloudy,110,2012-12-07 17:56:00
12:56 PM,68.0,59.0,73,29.92,10.0,East,6.9,-,N/A,,Overcast,80,2012-12-07 18:56:00
1:56 PM,68.0,59.0,73,29.91,10.0,ENE,4.6,-,N/A,,Overcast,60,2012-12-07 19:56:00
2:56 PM,69.1,59.0,70,29.91,10.0,ESE,6.9,-,N/A,,Overcast,110,2012-12-07 20:56:00
3:36 PM,69.8,60.8,73,29.94,10.0,ESE,4.6,-,N/A,,Overcast,110,2012-12-07 21:36:00
3:56 PM,69.1,59.0,70,29.91,10.0,East,5.8,-,N/A,,Overcast,100,2012-12-07 21:56:00
4:56 PM,68.0,59.0,73,29.92,10.0,East,5.8,-,N/A,,Overcast,90,2012-12-07 22:56:00
5:56 PM,66.9,59.0,76,29.92,10.0,East,4.6,-,N/A,,Overcast,100,2012-12-07 23:56:00
6:56 PM,66.0,59.0,78,29.93,10.0,ESE,4.6,-,N/A,,Overcast,110,2012-12-08 00:56:00
7:56 PM,66.0,57.9,75,29.94,10.0,ESE,3.5,-,N/A,,Overcast,110,2012-12-08 01:56:00
8:56 PM,64.9,57.9,78,29.95,10.0,ESE,3.5,-,N/A,,Overcast,110,2012-12-08 02:56:00
9:56 PM,63.0,57.0,81,29.95,9.0,ESE,4.6,-,N/A,,Mostly Cloudy,120,2012-12-08 03:56:00
10:35 PM,62.6,55.4,77,29.99,10.0,East,3.5,-,N/A,,Scattered Clouds,100,2012-12-08 04:35:00
10:56 PM,61.0,57.0,87,29.96,7.0,ESE,4.6,-,N/A,,Clear,110,2012-12-08 04:56:00
11:20 PM,60.8,57.2,88,29.98,6.0,East,3.5,-,N/A,,Mostly Cloudy,80,2012-12-08 05:20:00
11:31 PM,60.8,55.4,82,29.98,6.0,East,4.6,-,N/A,,Haze,80,2012-12-08 05:31:00
11:56 PM,61.0,55.9,83,29.94,5.0,East,3.5,-,N/A,,Haze,90,2012-12-08 05:56:00